Location: DARK SKY Beskydy - Park tmavé oblohy, www.darkskybeskydy.cz
(49.4926°N, 18.5016°E)
Time: 10:14:29
(UTC+02:00)

BlueWalker 3 - Pass Details

Date: 23 June 2024
Orbit: 480 x 491 km, 53.2° (Epoch: 23 July)

Event Time Altitude Azimuth Distance (km) Brightness Sun altitude
Rises 01:21:58 0° 292° (WNW) 2,539 5.7 -16.7°
Reaches altitude 10° 01:24:08 10° 294° (WNW) 1,658 4.8 -16.6°
Maximum altitude 01:27:52 75° 20° (NNE) 500 2.0 -16.6°
Drops below altitude 10° 01:31:36 10° 107° (ESE) 1,653 4.5 -16.4°
Sets 01:33:46 0° 109° (ESE) 2,531 5.4 -16.4°
